Погода в Белозерске

Погода в Белозерске : погода сейчас, прогноз погоды и архив. Всё, что Вы хотите узнать о погоде в Белозерске!

Поиск расширенной информации на нашем сайте:

Другие новости

Новости СМИ2

Главная страница сайта

Новости сайта

03.07.2017

Напоминаем, что на нашем специализированном сайте Метеоцентр.Азия вы можете получить высокодетализированные автоматические прогнозы погоды по пунктам России, СНГ и мира в авиационном формате (включающие направление и скорость ветра, видимость, явления погоды, количество и форму облачности, нижнюю и верхнюю границу облачности).

Рекомендуем: серьезно купить датчик движения цена

Погода в Белозерске - сегодня

Время (UTC), дата Ветер
(°,м/с) 
Видим.   Явления Облачность Т
(°С)
Тd
(°С)
f(%) Тe
(°С)
Pmin
(гПа)
dP
(гПа)
Po
(мм)
O2
(г/м3)
Тmin Tmax R s Состояние
почвы
00 18.08.17 150 (ЮВ) 10 км    9/4 2000 м средняя, верхняя 
[Ac trans|Cs]
+14.6 +12.8 89 +20  1023.6  -0.5  756  287           
03 18.08.17 170 (Ю) 10 км    8/3 1000 м средняя, верхняя 
[Sc|Ac trans|Ci]
+14 +12.4 90 +18  1023.1  -0.5  756  287  +13.6        влажная 
06 18.08.17 170 (Ю) 10 км    4/0 верхняя 
[Cc]
+18.7 +14.6 77 +27  1022.5  -0.3  755  282           
09 18.08.17 140 (ЮВ) 4000 м  слаб. ливневой дождь  9/4 600 м кучево-дожд., средняя 
[Cb calv|Ac trans]
+21 +15.1 69 +30  1022  -0.4  755  279           
12 18.08.17 170 (Ю) 3{10}  10 км  {ливн. осадки}  10/5 600 м кучево-дожд., средняя 
[Cb calv|Ac und]
+21.2 +15.1 68 +30  1020.7  -1.3  754  279           
15 18.08.17 170 (Ю) 5{13}  10 км  {гроза, ливн. осадки}  10/10 660 м кучево-дожд. 
[Cb calv]
+18.2 +16.2 88 +29  1019.3  -1.5  753  281    +24.3     
18 18.08.17 180 (Ю) 4000 м  гроза, ливневой дождь  10/10 500 м кучево-дожд. 
[Cb calv]
+18.2 +16 87 +28  1019.2  -0.1  753  281           
21 18.08.17 190 (Ю) 10 км  в посл. час ливневой дождь{гроза}  10/10 540 м кучево-дожд. 
[Cb calv]
+16.6 +14.8 89 +25  1018  -1.3  752  282           
00 19.08.17 170 (Ю) 4000 м  дымка{гроза, ливн. осадки}  10/3 1000 м верхняя 
[Sc|Cs]
+15.1 +13.8 92 +22  1018.6  0.6  752  284           
03 19.08.17 160 (Ю) 4000 м  слаб. дождь  10/4 300 м средняя 
[Frnb|As op]
+15.7 +14.4 92 +25  1017.8  -0.8  752  283  +15      влажная 
06 19.08.17 190 (Ю) 10 км  {дождь}  8/0 верхняя 
[Cs]
+18.6 +15.8 84 +29  1018  -0.4  752  280           
09 19.08.17 220 (ЮЗ) 10 км    9/9 700 м кучево-дожд. 
[Cb calv]
+21.5 +17.3 77 +34  1018.3  0.4  752  277           
12 19.08.17 230 (ЮЗ) 10 км    9/8 870 м кучево-дожд., верхняя 
[Cb calv|Cs]
+23.5 +17.3 68 +36  1018.2  752  275           
15 19.08.17 200 (Ю) 10 км    8/0 верхняя 
[Cs]
+23.8 +17.7 69 +37  1017.2  -1  752  275    +24.5  0.0     
18 19.08.17 160 (Ю) 10 км    4/0 верхняя 
[Ci]
+20.3 +17.3 83 +33  1016.9  -0.4  751  278           
21 19.08.17 170 (Ю) 10 км    ясно 
+18.1 +16.6 91 +31  1017.3  0.2  751  280           
00 20.08.17 160 (Ю) 10 км    ясно 
+17.8 +15.6 87 +29  1017  -0.2  751  281           
03 20.08.17 170 (Ю) 10 км    6/0 верхняя 
[Ci]
+17.3 +15.1 87 +27  1016.7  -0.4  751  281  +17.1        влажная 
06 20.08.17 190 (Ю) 10 км    8/0 верхняя 
[Cs]
+21.8 +16.5 72 +33  1016.4  -0.1  751  277  +17         
09 20.08.17 180 (Ю) 10 км    8/0 верхняя 
[Cs]
+25.7 +17.4 60 +39  1016.3  0.2  751  273           
12 20.08.17 230 (ЮЗ) 10 км    10/0 верхняя 
[Cs]
+28.1 +16.4 49 +39  1016.5  0.3  751  271           
15 20.08.17 280 (З) 10 км    3/0 верхняя 
[Ci fib]
+26 +17.9 61 +40  1016.8  0.2  751  272    +28.4       
18 20.08.17 160 (Ю) 10 км    3/0 верхняя 
[Ci fib]
+18.8 +17.5 92 +33  1017.9  0.7  752  279           
21 20.08.17 тихо ()   10 км  дымка  ясно 
+17.2 +16.2 94 +28  1018.2  0.2  752  282           
00 21.08.17 150 (ЮВ) 4000 м  дымка  6/3 1000 м средняя 
[Sc|Ac trans]
+16.2 +15.1 93 +26  1018.1  -0.2  752  283           
Время (UTC), дата Ветер
(°,м/с) 
Видим.   Явления Облачность Т
(°С)
Тd
(°С)
f(%) Тe
(°С)
Pmin
(гПа)
dP
(гПа)
Po
(мм)
O2
(г/м3)
Тmin Tmax R s Состояние
почвы

Для получения пояснительной информации подведите курсор к названию столбца.

ПОГОДА в Белозерске - архив

Всё, что Вы хотите узнать о погоде в Белозерске - удобно и подробно!

Выберите нужную дату (начиная с 1 января 2015* года) и нажмите кнопку "Найти".
Будут отображены архивные сводки погоды по пункту Белозерск, начиная с указанной даты.


Отображать данные в формате CSV (для использования в таблицах Excel)


Внимание! Наш архив погоды предназначен исключительно для личного некоммерческого использования в познавательных целях. Если Вам необходимы официальные справки о состоянии погоды (для производственных, юридических, коммерческих и т.п. целей), обращайтесь в органы Росгидромета.

*Примечание: данная дата относится к архиву по метеостанциям СССР (Россия, СНГ, Балтия).
Архив по метеостанциям Зарубежной Европы и Азии (кроме Китая) хранится 10 дней, по другим регионам земного шара (Китай, Африка, Америка, Австралия, Океания) - 1 день.

Белозерск - район местоположения метеостанции


Название, широта, долгота, высота метеостанции:
Белозерск 60°ш. 37.8°д. 131 м над ур. моря [Российская Федерация]

Дополнительная информация

В oтличие oт бoльшинства пoгoдных сайтoв мы публикуем пoдрoбную метеoинфoрмацию в детальнoм прoфессиoнальнoм фoрмате.

Характеристики температуры и влажнoсти вoздуха измеряются на высoте 2 м в тени вдали oт зданий и деревьев.
Скoрoсть ветра измеряется на высoте 10 м (на урoвне рoста челoвека скoрoсть ветра ниже в 1.5-2 раза). Если метеoстанция нахoдится в гoрoде или в лесу, тo скoрoсть ветра занижена на 2-4 м/с пo сравнению с oткрытым местoм. Скoрoсть ветра над акватoриями крупных рек и oзёр, а также на вершинах хoлмoв на 2-5 м/с выше, чем в oбычных услoвиях.
Атмoсфернoе давление в разных тoчках местнoсти мoжет значительнo oтличаться oт давления на метеoстанции, в зависимoсти oт услoвий рельефа (при пoдъёме на 10 м давление пoнижается примернo на 1 мм рт.ст.).